Starlink 11530

operational
NORAD ID: 62562 Int'l Des: 2025-006 Owner: SPXS Country: US Constellation: starlink
LEOCIRCULAR

About Starlink 11530

Description loading...

Live Position

Loading 3D Globe...

Upcoming Passes

Altitude History

Altitude vs Time

uPlot chart will show altitude changes over time

Two-Line Element Set

1 62562U 25006J 25301.47204876 .00265867 00000-0 19998-2 0 9995
2 62562 43.0005 217.2468 0001932 285.0545 75.0109 15.70960332 45804
Epoch: Oct 28, 2025 • Age: 21 hours

Current Status

Altitude 358.2 km
Velocity 7.70 km/s
Sub-Earth Point -19.60°S, 23.2°E
Launch Date Jan 10, 2025
Age 0.7 years
Type internet

Technical Details

Classification Payload
Mass 960.00 kg
Dry Mass 910.00 kg
Total Mass 960.00 kg
Length 0.30 m
Diameter 4.10 m
Span 29.00 m
Shape Box + pan
Manufacturer SPXS
Bus Type Starlink V2MD
Phase Status In Orbit
Owner/State SPXS/US

Large Constellations

Loading constellations...